Location: Banff
(51.1667°N, 115.5667°W)
Time: 06:36:56
(UTC+00:00)

S-56A Canister/Altair - Pass Details

Date: 27 November 2020
Orbit: 633 x 2499 km, 38.9° (Epoch: 21 January)

Event Time Altitude Azimuth Distance (km) Brightness Sun altitude
Rises 08:55:41 0° 262° (W) 3,759 - -55.7°
Reaches altitude 10° 09:01:03 10° 227° (SW) 2,397 - -55.2°
Maximum altitude 09:02:11 11° 214° (SW) 2,279 - -55.1°
Drops below altitude 10° 09:03:16 10° 202° (SSW) 2,257 - -55.0°
Sets 09:07:35 0° 162° (SSE) 2,974 - -54.5°
